| time (UTC) | temp C | wind direction | speed KPH | gust KPH | rain 1hr cm | rain 24hr cm | rain mn cm | humidity % | barometer mb |
| 20260508000053 | 14 | 0 | 0.0 | 1.6 | 0.00 | 0.41 | 0.00 | 88 | 1010.4 |
| 20260507234548 | 15 | 57 | 0.0 | 8.0 | 0.00 | 0.41 | 0.00 | 88 | 1010.4 |
| 20260507233044 | 15 | 0 | 1.6 | 9.7 | 0.00 | 0.41 | 0.00 | 88 | 1010.2 |
| 20260507231546 | 15 | 0 | 0.0 | 11.3 | 0.00 | 0.41 | 0.00 | 89 | 1009.9 |
| 20260507230051 | 15 | 0 | 0.0 | 4.8 | 0.00 | 0.41 | 0.00 | 89 | 1009.9 |
| 20260507224551 | 15 | 0 | 1.6 | 8.0 | 0.00 | 0.41 | 0.00 | 89 | 1009.7 |
| 20260507223048 | 15 | 352 | 0.0 | 16.1 | 0.00 | 0.41 | 0.00 | 89 | 1009.6 |
| 20260507221544 | 15 | 37 | 1.6 | 9.7 | 0.00 | 0.41 | 0.00 | 88 | 1009.6 |
| 20260507220042 | 16 | 62 | 0.0 | 19.3 | 0.00 | 0.41 | 0.00 | 87 | 1009.0 |
| 20260507214545 | 16 | 346 | 4.8 | 17.7 | 0.00 | 0.41 | 0.00 | 85 | 1008.7 |
| 20260507213048 | 17 | 20 | 0.0 | 17.7 | 0.00 | 0.41 | 0.00 | 85 | 1007.8 |
| 20260507211556 | 18 | 85 | 4.8 | 22.5 | 0.00 | 0.41 | 0.00 | 79 | 1007.7 |
| 20260507210049 | 19 | 30 | 4.8 | 19.3 | 0.00 | 0.41 | 0.00 | 78 | 1008.0 |
| 20260507204548 | 21 | 280 | 1.6 | 19.3 | 0.00 | 0.41 | 0.00 | 75 | 1007.7 |
| 20260507203043 | 25 | 0 | 0.0 | 6.4 | 0.00 | 0.41 | 0.00 | 67 | 1007.4 |
| 20260507201544 | 24 | 206 | 3.2 | 8.0 | 0.00 | 0.41 | 0.00 | 66 | 1007.0 |
| 20260507200045 | 25 | 147 | 3.2 | 12.9 | 0.00 | 0.41 | 0.00 | 62 | 1007.1 |
| 20260507194544 | 24 | 233 | 3.2 | 9.7 | 0.00 | 0.41 | 0.00 | 67 | 1007.5 |
| 20260507193053 | 23 | 194 | 3.2 | 12.9 | 0.00 | 0.41 | 0.00 | 73 | 1007.5 |
| 20260507191544 | 23 | 270 | 4.8 | 11.3 | 0.00 | 0.41 | 0.00 | 73 | 1007.7 |
| 20260507190047 | 23 | 140 | 4.8 | 11.3 | 0.00 | 0.41 | 0.00 | 74 | 1007.9 |
| 20260507184538 | 22 | 260 | 1.6 | 8.0 | 0.00 | 0.41 | 0.00 | 76 | 1007.9 |
| 20260507183049 | 22 | 146 | 3.2 | 9.7 | 0.00 | 0.41 | 0.00 | 76 | 1007.9 |
| 20260507181549 | 21 | 103 | 1.6 | 8.0 | 0.00 | 0.41 | 0.00 | 79 | 1008.3 |
| 20260507180044 | 22 | 248 | 1.6 | 9.7 | 0.00 | 0.41 | 0.00 | 83 | 1008.7 |
| 20260507174601 | 21 | 238 | 1.6 | 9.7 | 0.00 | 0.66 | 0.00 | 82 | 1008.9 |
| 20260507173048 | 21 | 0 | 0.0 | 3.2 | 0.00 | 0.66 | 0.00 | 88 | 1008.7 |
| 20260507171550 | 20 | 211 | 0.0 | 9.7 | 0.00 | 0.66 | 0.00 | 88 | 1009.0 |
| 20260507170134 | 20 | 0 | 1.6 | 8.0 | 0.00 | 0.66 | 0.00 | 89 | 1009.2 |
| 20260507164553 | 20 | 196 | 0.0 | 3.2 | 0.00 | 0.66 | 0.00 | 91 | 1009.0 |
| 20260507163052 | 20 | 221 | 0.0 | 1.6 | 0.00 | 0.66 | 0.00 | 91 | 1009.1 |
| 20260507161552 | 19 | 205 | 1.6 | 4.8 | 0.00 | 0.66 | 0.00 | 92 | 1009.8 |
| 20260507160110 | 19 | 0 | 0.0 | 1.6 | 0.00 | 0.66 | 0.00 | 93 | 1008.7 |
| 20260507154548 | 19 | 86 | 0.0 | 1.6 | 0.00 | 0.66 | 0.00 | 93 | 1008.6 |
| 20260507153047 | 18 | 0 | 0.0 | 1.6 | 0.00 | 0.66 | 0.00 | 94 | 1008.4 |
| 20260507151557 | 18 | 0 | 0.0 | 1.6 | 0.00 | 0.66 | 0.00 | 94 | 1009.1 |
| 20260507150043 | 18 | 0 | 0.0 | 4.8 | 0.00 | 0.66 | 0.00 | 94 | 1009.3 |
| 20260507144548 | 18 | 0 | 0.0 | 1.6 | 0.00 | 0.66 | 0.00 | 94 | 1010.1 |
| 20260507143049 | 18 | 229 | 1.6 | 6.4 | 0.00 | 0.66 | 0.00 | 94 | 1010.1 |
| 20260507141547 | 18 | 220 | 0.0 | 3.2 | 0.00 | 0.66 | 0.00 | 94 | 1009.8 |
| 20260507140048 | 18 | 223 | 0.0 | 0.0 | 0.00 | 0.66 | 0.00 | 95 | 1009.3 |
| 20260507134550 | 17 | 229 | 0.0 | 4.8 | 0.00 | 0.66 | 0.00 | 95 | 1009.3 |
| 20260507133056 | 17 | 134 | 0.0 | 1.6 | 0.00 | 0.66 | 0.00 | 95 | 1009.2 |
| 20260507131612 | 17 | 0 | 0.0 | 0.0 | 0.00 | 0.66 | 0.00 | 95 | 1009.4 |
| 20260507130050 | 17 | 0 | 0.0 | 1.6 | 0.00 | 0.66 | 0.00 | 94 | 1009.5 |
| 20260507124600 | 17 | 0 | 0.0 | 1.6 | 0.00 | 0.66 | 0.00 | 95 | 1010.0 |
| 20260507123051 | 17 | 0 | 0.0 | 6.4 | 0.00 | 0.66 | 0.00 | 95 | 1010.4 |
| 20260507121549 | 17 | 238 | 0.0 | 3.2 | 0.00 | 0.66 | 0.00 | 95 | 1011.3 |
| 20260507120051 | 17 | 234 | 0.0 | 1.6 | 0.00 | 0.66 | 0.00 | 95 | 1010.2 |
| 20260507114540 | 17 | 0 | 0.0 | 1.6 | 0.00 | 0.66 | 0.00 | 95 | 1009.9 |
| 20260507113122 | 17 | 163 | 0.0 | 1.6 | 0.00 | 0.66 | 0.00 | 95 | 1009.8 |
| 20260507111545 | 17 | 254 | 1.6 | 6.4 | 0.00 | 0.66 | 0.00 | 95 | 1010.1 |
| 20260507110048 | 17 | 0 | 0.0 | 1.6 | 0.00 | 0.66 | 0.00 | 95 | 1009.7 |
| 20260507104559 | 17 | 0 | 0.0 | 0.0 | 0.00 | 0.66 | 0.00 | 95 | 1009.9 |
| 20260507103049 | 17 | 0 | 0.0 | 0.0 | 0.00 | 0.66 | 0.00 | 95 | 1009.9 |
| 20260507101544 | 17 | 0 | 0.0 | 0.0 | 0.00 | 0.66 | 0.00 | 95 | 1009.8 |
| 20260507100054 | 17 | 0 | 0.0 | 1.6 | 0.00 | 0.66 | 0.00 | 95 | 1009.9 |
| 20260507094543 | 17 | 0 | 0.0 | 1.6 | 0.00 | 0.66 | 0.00 | 95 | 1009.5 |
| 20260507093050 | 17 | 0 | 0.0 | 1.6 | 0.00 | 0.66 | 0.00 | 95 | 1009.8 |
| 20260507091550 | 17 | 0 | 0.0 | 4.8 | 0.00 | 0.66 | 0.00 | 95 | 1010.0 |
| 20260507090047 | 17 | 146 | 0.0 | 4.8 | 0.00 | 0.66 | 0.00 | 95 | 1009.6 |
| 20260507084556 | 17 | 138 | 0.0 | 3.2 | 0.00 | 0.66 | 0.00 | 95 | 1009.9 |
| 20260507083044 | 17 | 0 | 0.0 | 3.2 | 0.00 | 0.66 | 0.00 | 95 | 1009.7 |
| 20260507081551 | 17 | 0 | 0.0 | 3.2 | 0.00 | 0.66 | 0.00 | 94 | 1009.7 |
| 20260507080052 | 17 | 0 | 0.0 | 1.6 | 0.00 | 0.66 | 0.00 | 94 | 1009.9 |
| 20260507074548 | 17 | 0 | 0.0 | 0.0 | 0.00 | 0.66 | 0.00 | 94 | 1009.9 |
| 20260507073044 | 17 | 0 | 0.0 | 3.2 | 0.00 | 0.66 | 0.00 | 94 | 1010.2 |
| 20260507071546 | 17 | 115 | 0.0 | 3.2 | 0.00 | 0.66 | 0.00 | 94 | 1010.8 |
| 20260507070054 | 17 | 0 | 0.0 | 1.6 | 0.00 | 0.66 | 0.00 | 94 | 1011.2 |
| 20260507064550 | 17 | 115 | 0.0 | 1.6 | 0.00 | 0.66 | 0.00 | 94 | 1011.2 |
| 20260507063053 | 17 | 0 | 0.0 | 1.6 | 0.00 | 0.66 | 0.00 | 94 | 1011.7 |
| 20260507061547 | 17 | 0 | 0.0 | 0.0 | 0.00 | 0.66 | 0.00 | 94 | 1012.1 |
| 20260507060046 | 17 | 102 | 0.0 | 1.6 | 0.00 | 0.66 | 0.00 | 94 | 1011.4 |
| 20260507054544 | 17 | 0 | 0.0 | 1.6 | 0.00 | 0.66 | 0.00 | 94 | 1012.3 |
| 20260507053040 | 17 | 0 | 0.0 | 0.0 | 0.00 | 0.66 | 0.00 | 94 | 1012.8 |
| 20260507051541 | 17 | 0 | 0.0 | 1.6 | 0.00 | 0.66 | 0.00 | 94 | 1012.3 |
| 20260507050100 | 17 | 0 | 0.0 | 4.8 | 0.00 | 0.66 | 0.00 | 94 | 1011.7 |
| 20260507044552 | 17 | 0 | 0.0 | 3.2 | 0.00 | 0.66 | 0.00 | 94 | 1011.4 |
| 20260507043044 | 17 | 211 | 0.0 | 6.4 | 0.00 | 0.66 | 0.00 | 94 | 1012.0 |
| 20260507041545 | 17 | 265 | 0.0 | 6.4 | 0.00 | 0.66 | 0.00 | 93 | 1012.4 |
| 20260507040045 | 17 | 117 | 1.6 | 8.0 | 0.00 | 0.66 | 0.00 | 93 | 1012.7 |
| 20260507034546 | 17 | 199 | 0.0 | 6.4 | 0.00 | 0.66 | 0.66 | 93 | 1012.1 |
| 20260507033049 | 17 | 148 | 0.0 | 4.8 | 0.00 | 0.66 | 0.66 | 93 | 1011.2 |
| 20260507031545 | 17 | 0 | 0.0 | 1.6 | 0.00 | 0.66 | 0.66 | 93 | 1013.9 |
| 20260507030045 | 17 | 0 | 0.0 | 3.2 | 0.00 | 0.66 | 0.66 | 92 | 1014.0 |
| 20260507024546 | 17 | 240 | 0.0 | 1.6 | 0.20 | 0.66 | 0.66 | 92 | 1013.7 |
| 20260507023040 | 17 | 0 | 0.0 | 1.6 | 0.28 | 0.66 | 0.66 | 91 | 1013.4 |
| 20260507021555 | 18 | 0 | 0.0 | 8.0 | 0.28 | 0.66 | 0.66 | 91 | 1013.4 |
| 20260507020048 | 18 | 272 | 1.6 | 4.8 | 0.30 | 0.64 | 0.64 | 90 | 1013.9 |
| 20260507014547 | 18 | 211 | 1.6 | 8.0 | 0.13 | 0.46 | 0.46 | 90 | 1013.2 |
| 20260507013044 | 19 | 234 | 0.0 | 1.6 | 0.08 | 0.38 | 0.38 | 90 | 1012.7 |
| 20260507011545 | 20 | 236 | 1.6 | 14.5 | 0.10 | 0.38 | 0.38 | 89 | 1012.5 |
| 20260507010045 | 20 | 252 | 3.2 | 6.4 | 0.08 | 0.33 | 0.33 | 89 | 1012.5 |
| 20260507004540 | 20 | 233 | 0.0 | 1.6 | 0.08 | 0.33 | 0.33 | 89 | 1012.4 |
| 20260507003049 | 21 | 0 | 0.0 | 1.6 | 0.05 | 0.30 | 0.30 | 87 | 1012.4 |
| 20260507001541 | 21 | 200 | 0.0 | 1.6 | 0.03 | 0.28 | 0.28 | 84 | 1012.4 |